CARTOSAT-3 (44804 NORAD) Tracking and Keplerian Element Data

This shows tracking and keplerian element data for the satellite.

Feedback or suggestion? Click here.




ElementValue
Catalog44804
NameCARTOSAT-3
Epoch Orbit1845
Epoch Day88.10410955
Epoch Year2020
RAAN149.453
Inclination97.506
Eccentricity0.0015408
Argument of Perigee165.7037
Mean Anonmoly251.4269
Mean Motion15.18782062
Decay Rate2.38E-06
L11 44804U 19081A 20088.10410955 .00000238 00000-0 14740-4 0 9995
L22 44804 97.5060 149.4530 0015408 165.7037 251.4269 15.18782062 18459

Live tracking and technical data element details for CARTOSAT-3 (NORAD 44804). CARTOSAT-3 can be tracked NOW for your location showing map with azimuth and elevation plus other details from your city location.

Track the satellite on the map from your city or location and see movement details for azimuth, elevation, latitude, longitude, range, height, and movement on the map or in text.







IsCatalogInMostPopularTable: catalog: 44804, numindb: 42
Update: records affected: 1



GetName: 44804 CARTOSAT-3

Hit Count: updated at: Mon, 30 Mar 2020 14:08:07 GMT